AirNav   Everest Fuels
 
 410 users online  

3O4 Sayre Municipal Airport
Sayre, Oklahoma, USA

GOING TO SAYRE?


FAA INFORMATION EFFECTIVE 08 OCTOBER 2020

Location

FAA Identifier: 3O4
Lat/Long: 35-10-03.7530N 099-39-28.1020W
35-10.062550N 099-39.468367W
35.1677092,-99.6578061
(estimated)
Elevation: 1937.2 ft. / 590 m (estimated)
Variation: 08E (1985)
From city: 7 miles S of SAYRE, OK
Time zone: UTC -5 (UTC -6 during Standard Time)
Zip code: 73662

Airport Operations

Airport use: Open to the public
Activation date: 11/1946
Control tower: no
ARTCC: FORT WORTH CENTER
FSS: MC ALESTER FLIGHT SERVICE STATION
NOTAMs facility: MLC (NOTAM-D service available)
Attendance: UNATNDD
Wind indicator: lighted
Segmented circle: no
Lights: ACTVT MIRL RWY 17/35 DUSK-DAWN - CTAF. PAPI PHOTOCELL DUSK-DAWN.
Beacon: white-green (lighted land airport)
Operates sunset to sunrise.

Airport Communications

CTAF: 122.9

Nearby radio navigation aids

VOR radial/distance  VOR name  Freq  Var
BFVr254/22.5BURNS FLAT VORTAC110.0005E
HBRr292/34.3HOBART VORTAC111.8010E
LTSr323/35.8ALTUS VORTAC109.8005E

Airport Services

Fuel available: 100LL
SELF SERVE FUEL AVBL 24 HRS WITH CREDIT CARD.
Parking: tiedowns
Airframe service: NONE
Powerplant service: NONE
Bottled oxygen: NONE
Bulk oxygen: NONE

Runway Information

Runway 17/35

Dimensions: 4276 x 130 ft. / 1303 x 40 m
Surface: concrete, in good condition
Weight bearing capacity: 
Single wheel: 30.0
Runway edge lights: medium intensity
RUNWAY 17  RUNWAY 35
Latitude: 35-10.414953N35-09.710162N
Longitude: 099-39.465457W099-39.471280W
Elevation: 1909.8 ft.1937.2 ft.
Traffic pattern: leftleft
Runway heading: 172 magnetic, 180 true352 magnetic, 360 true
Markings: basic, in good conditionbasic, in good condition
Visual slope indicator: 2-light PAPI on left (3.00 degrees glide path)2-light PAPI on left (3.00 degrees glide path)
Touchdown point: yes, no lightsyes, no lights

Airport Ownership and Management from official FAA records

Ownership: Publicly-owned
Owner: CITY OF SAYRE
102 W MAIN
SAYRE, OK 73662
Phone 580-928-2260
Manager: GUY HYLTON
102 W. MAIN, 12714 N. 1860 RD.
SAYRE, OK 73662
Phone 580-928-2260
CITY MANAGER.

Airport Operational Statistics

Aircraft based on the field: 10
Single engine airplanes: 10
    
Aircraft operations: avg 40/week *
86% local general aviation
14% transient general aviation
* for 12-month period ending 05 October 2017

Additional Remarks

FOR CD CTC FORT WORTH ARTCC AT 817-858-7584.

Instrument Procedures

There are no published instrument procedures at 3O4.

Some nearby airports with instrument procedures:

2K4 - Scott Field Airport (18 nm S)
KELK - Elk City Regional Business Airport (20 nm NE)
KCSM - Clinton-Sherman Airport (25 nm NE)
O35 - Hollis Municipal Airport (30 nm SW)
T59 - Wheeler Municipal Airport (32 nm NW)
 
Loc | Ops | Rwys | IFR | FBO | Links
Com | Nav | Svcs | Stats | Notes

AirBoss

 
Area around 3O4 (Sayre Municipal Airport)
 
Road maps at: MapQuest Bing Google
 
Aerial photo
WARNING: Photo may not be current or correct
Aerial photo of 3O4 (Sayre Municipal Airport)
Photo by Dean Ritter, Aerial Oklahoma

Do you have a better or more recent aerial photo of Sayre Municipal Airport that you would like to share? If so, please send us your photo.

 
Sectional chart

 
Airport distance calculator
Flying to Sayre Municipal Airport? Find the distance to fly.

From to 3O4

Sunrise and sunset
Times for 27-Oct-2020
 Local
(UTC-5)
 Zulu
(UTC)
Morning civil twilight07:3112:31
Sunrise07:5712:57
Sunset18:4823:48
Evening civil twilight19:1400:14

Current date and time
Zulu (UTC)  27-Oct-2020 09:42:10
Local (UTC-5)  27-Oct-2020 04:42:10
 
METAR
KELK 
20nm NE 
270915Z AUTO 00000KT 7SM OVC007 M05/M06 A3023 RMK AO2 T10471057
KCSM 
25nm NE 
270906Z AUTO 02022KT 4SM -FZRA BR BKN008 OVC012 M05/M06 A3023 RMK AO2 PK WND 01029/0855 CIG 005V011 P0000 I1001 T10501056 $
KHBR 
32nm E 
270853Z AUTO 03016G26KT 4SM -FZRA BR OVC009 M03/M04 A3024 RMK AO2 PK WND 03028/0842 UPB14E16FZRAB16 CIG 007V013 SLP254 P0000 60000 I1002 I3002 T10281044 58018 $
KAXS 
32nm SE 
270915Z AUTO 01007KT 7SM UP OVC011 M02/M04 A3026 RMK AO2 LTG DSNT SE THRU SW T10211040
KLTS 
36nm SE 
270918Z 02010KT 7SM PL OVC008 M03/M05 A3023 RMK AO2A LTG DSNT E FZRAE0856PLB18 OVC V BKN PRESFR SLP251 CHINO RWY35L $
TAF
KCSM 
25nm NE 
270520Z 2706/2806 01017G25KT 5SM BR OVC007 TEMPO 2706/2710 3SM -FZDZ OVC004 FM271000 01019G27KT 3SM -FZRA BR OVC005 TEMPO 2710/2714 3/4SM -FZRAPL BR OVC002 FM271800 36016G22KT 5SM -FZDZ BR OVC005
NOTAMs
Click for the latest NOTAMs
NOTAMs are issued by the DoD/FAA and will open in a separate window not controlled by AirNav.

 

 
 

FBO, Fuel Providers, and Aircraft Ground Support

  
 Business Name 
 
 Contact 
 
 Services / Description 
 
Fuel Prices
 
Comments
  
Sayre Municipal Airport 580-928-2260
no information available

If you are affiliated with Sayre Municipal Airport and would like to show here your services, contact info, web link, logo, and more, click here
100LL
SS $3.75 
 Updated 22-Oct-2020
 
   write
SS=Self service
Update Fuel Prices
 

Would you like to see your business listed on this page?

 If your business provides an interesting product or service to pilots, flight crews, aircraft, or users of the Sayre Municipal Airport, you should consider listing it here.  To start the listing process, click on the button below
 
Add a business
 

Other Pages about Sayre Municipal Airport

Update a link
 
Copyright © AirNav, LLC. All rights reserved. Privacy Policy  Contact